When you browse on this site, cookies collect data to enhance your experience and personalize the content and advertising you see.
Visit our Privacy Policy to learn more. By continuing to use the site, you agree to this use of cookies and data.
  • în România
  • Lista ţărilor
  • Pe 7 zile
  • Temperatura apei
  • Hartă satelitară
  • Meteo pe hartă
  • Widget-uri
  • user-avatar
    Intrare

    Meteo pe oră la Colón

    Astăzi, 20 Mai, Luni

    Timp Temperatura Precipitaţii Vânt Presiune Umiditate
    00:00 +27°C° 0.5 mm 1 m/s 757 mmHg 93%
    01:00 +27°C° 0.5 mm 1 m/s 757 mmHg 94%
    02:00 +27°C° 0.1 mm 1 m/s 757 mmHg 94%
    03:00 +26°C° 0.1 mm 1 m/s 757 mmHg 94%
    04:00 +26°C° 0.1 mm 1 m/s 756 mmHg 94%
    05:00 +27°C° 0.2 mm 1 m/s 756 mmHg 93%
    06:00 +27°C° 0.2 mm 1 m/s 757 mmHg 92%
    07:00 +27°C° 0.2 mm 1 m/s 757 mmHg 91%
    08:00 +29°C° 0.2 mm 1 m/s 757 mmHg 83%
    09:00 +30°C° 0.2 mm 1 m/s 758 mmHg 76%
    10:00 +32°C° 0.2 mm 1 m/s 758 mmHg 69%
    11:00 +32°C° 0.2 mm 1 m/s 758 mmHg 66%
    12:00 +33°C° 0.2 mm 1 m/s 758 mmHg 63%
    13:00 +34°C° 0.2 mm 1 m/s 757 mmHg 61%
    14:00 +33°C° 1.7 mm 1 m/s 757 mmHg 68%
    15:00 +31°C° 1.7 mm 1 m/s 756 mmHg 75%
    16:00 +30°C° 1.7 mm 1 m/s 756 mmHg 82%
    17:00 +29°C° 1.6 mm 1 m/s 756 mmHg 85%
    18:00 +28°C° 1.6 mm 2 m/s 756 mmHg 88%
    19:00 +28°C° 1.6 mm 2 m/s 756 mmHg 90%
    20:00 +28°C° 0 mm 2 m/s 757 mmHg 91%
    21:00 +27°C° 0 mm 2 m/s 757 mmHg 91%
    22:00 +27°C° 0 mm 2 m/s 758 mmHg 91%
    23:00 +27°C° 0 mm 2 m/s 757 mmHg 91%

    Mâine, 21 Mai, Marţi

    Timp Temperatura Precipitaţii Vânt Presiune Umiditate
    00:00 +27°C° 0 mm 2 m/s 757 mmHg 92%
    01:00 +27°C° 0 mm 2 m/s 757 mmHg 92%
    02:00 +27°C° 0 mm 2 m/s 757 mmHg 92%
    03:00 +27°C° 0 mm 2 m/s 756 mmHg 92%
    04:00 +27°C° 0 mm 3 m/s 756 mmHg 92%
    05:00 +27°C° 0 mm 3 m/s 756 mmHg 91%
    06:00 +27°C° 0 mm 3 m/s 756 mmHg 91%
    07:00 +27°C° 0 mm 3 m/s 756 mmHg 90%
    08:00 +28°C° 0.1 mm 3 m/s 757 mmHg 85%
    09:00 +30°C° 0.1 mm 3 m/s 757 mmHg 80%
    10:00 +31°C° 0.1 mm 3 m/s 758 mmHg 76%
    11:00 +31°C° 2.1 mm 3 m/s 757 mmHg 76%
    12:00 +31°C° 2.1 mm 2 m/s 757 mmHg 77%
    13:00 +32°C° 2.1 mm 2 m/s 756 mmHg 77%
    14:00 +31°C° 2.3 mm 2 m/s 756 mmHg 78%
    15:00 +31°C° 2.3 mm 2 m/s 755 mmHg 80%
    16:00 +30°C° 2.3 mm 2 m/s 755 mmHg 81%
    17:00 +30°C° 0.5 mm 2 m/s 755 mmHg 83%
    18:00 +29°C° 0.5 mm 2 m/s 755 mmHg 85%
    19:00 +28°C° 0.5 mm 2 m/s 755 mmHg 87%
    20:00 +28°C° 0 mm 2 m/s 756 mmHg 88%
    21:00 +28°C° 0 mm 2 m/s 757 mmHg 88%
    22:00 +27°C° 0 mm 2 m/s 757 mmHg 89%
    23:00 +27°C° 0 mm 2 m/s 757 mmHg 89%

    Poimâine, 22 Mai, Miercuri

    Timp Temperatura Precipitaţii Vânt Presiune Umiditate
    00:00 +27°C° 0 mm 2 m/s 757 mmHg 89%
    01:00 +27°C° 0 mm 2 m/s 757 mmHg 90%
    02:00 +27°C° 0 mm 2 m/s 756 mmHg 90%
    03:00 +27°C° 0 mm 2 m/s 756 mmHg 90%
    04:00 +27°C° 0 mm 2 m/s 756 mmHg 90%
    05:00 +27°C° 0 mm 2 m/s 756 mmHg 89%
    06:00 +27°C° 0 mm 2 m/s 756 mmHg 88%
    07:00 +27°C° 0 mm 2 m/s 757 mmHg 87%
    08:00 +29°C° 0 mm 2 m/s 757 mmHg 81%
    09:00 +30°C° 0 mm 2 m/s 758 mmHg 75%
    10:00 +32°C° 0 mm 2 m/s 758 mmHg 68%
    11:00 +33°C° 0.2 mm 1 m/s 758 mmHg 67%
    12:00 +33°C° 0.2 mm 1 m/s 757 mmHg 65%
    13:00 +34°C° 0.2 mm 1 m/s 757 mmHg 63%
    14:00 +33°C° 1 mm 1 m/s 756 mmHg 67%
    15:00 +32°C° 1 mm 2 m/s 756 mmHg 72%
    16:00 +32°C° 1 mm 2 m/s 755 mmHg 76%
    17:00 +31°C° 1 mm 2 m/s 755 mmHg 80%
    18:00 +30°C° 1 mm 2 m/s 756 mmHg 83%
    19:00 +29°C° 1 mm 2 m/s 756 mmHg 86%
    20:00 +28°C° 0 mm 1 m/s 756 mmHg 87%
    21:00 +28°C° 0 mm 1 m/s 757 mmHg 88%
    22:00 +28°C° 0 mm 1 m/s 757 mmHg 88%
    23:00 +28°C° 0 mm 1 m/s 757 mmHg 89%

    23 Mai, Joi

    Timp Temperatura Precipitaţii Vânt Presiune Umiditate
    00:00 +28°C° 0 mm 1 m/s 757 mmHg 89%
    01:00 +27°C° 0 mm 1 m/s 757 mmHg 89%
    02:00 +27°C° 0.2 mm 1 m/s 756 mmHg 89%
    03:00 +27°C° 0.2 mm 1 m/s 756 mmHg 90%
    04:00 +27°C° 0.2 mm 1 m/s 756 mmHg 90%
    05:00 +27°C° 0.1 mm 1 m/s 756 mmHg 89%
    06:00 +26°C° 0.1 mm 0 m/s 757 mmHg 88%
    07:00 +26°C° 0.1 mm 0 m/s 757 mmHg 87%
    08:00 +28°C° 0.2 mm 0 m/s 757 mmHg 80%
    09:00 +29°C° 0.2 mm 0 m/s 758 mmHg 72%
    10:00 +31°C° 0.2 mm 0 m/s 758 mmHg 65%
    11:00 +32°C° 1.6 mm 1 m/s 758 mmHg 69%
    12:00 +32°C° 1.6 mm 2 m/s 757 mmHg 73%
    13:00 +31°C° 1.6 mm 2 m/s 757 mmHg 77%
    14:00 +31°C° 1.1 mm 2 m/s 756 mmHg 78%
    15:00 +31°C° 1.1 mm 2 m/s 756 mmHg 78%
    16:00 +31°C° 1.1 mm 2 m/s 755 mmHg 79%
    17:00 +30°C° 0.1 mm 2 m/s 756 mmHg 81%
    18:00 +29°C° 0.1 mm 2 m/s 756 mmHg 83%
    19:00 +28°C° 0.1 mm 1 m/s 756 mmHg 85%
    20:00 +28°C° 0 mm 1 m/s 757 mmHg 85%
    21:00 +28°C° 0 mm 1 m/s 757 mmHg 86%
    22:00 +26°C° 0 mm 0 m/s 758 mmHg 86%
    23:00 +26°C° 0.1 mm 0 m/s 757 mmHg 87%

    24 Mai, Vineri

    Timp Temperatura Precipitaţii Vânt Presiune Umiditate
    00:00 +26°C° 0.1 mm 0 m/s 757 mmHg 88%
    01:00 +25°C° 0.1 mm 0 m/s 757 mmHg 88%
    02:00 +25°C° 0 mm 0 m/s 756 mmHg 89%
    03:00 +25°C° 0 mm 0 m/s 756 mmHg 90%
    04:00 +25°C° 0 mm 0 m/s 756 mmHg 90%
    05:00 +27°C° 0 mm 1 m/s 756 mmHg 90%
    06:00 +27°C° 0 mm 1 m/s 757 mmHg 89%
    07:00 +28°C° 0 mm 1 m/s 757 mmHg 88%
    08:00 +29°C° 0.3 mm 1 m/s 757 mmHg 82%
    09:00 +30°C° 0.3 mm 1 m/s 758 mmHg 75%
    10:00 +32°C° 0.3 mm 1 m/s 758 mmHg 69%
    11:00 +32°C° 0.7 mm 2 m/s 757 mmHg 68%
    12:00 +32°C° 0.7 mm 2 m/s 757 mmHg 68%
    13:00 +33°C° 0.7 mm 3 m/s 757 mmHg 67%
    14:00 +33°C° 0.7 mm 3 m/s 756 mmHg 71%
    15:00 +31°C° 0.7 mm 3 m/s 756 mmHg 75%
    16:00 +30°C° 0.7 mm 3 m/s 755 mmHg 80%
    17:00 +29°C° 0.2 mm 3 m/s 756 mmHg 82%
    18:00 +28°C° 0.2 mm 2 m/s 756 mmHg 85%
    19:00 +28°C° 0.2 mm 2 m/s 757 mmHg 87%
    20:00 +27°C° 0 mm 2 m/s 757 mmHg 88%
    21:00 +27°C° 0 mm 1 m/s 757 mmHg 89%
    22:00 +27°C° 0 mm 1 m/s 758 mmHg 89%
    23:00 +27°C° 0.2 mm 1 m/s 757 mmHg 90%

    25 Mai, Sâmbătă

    Timp Temperatura Precipitaţii Vânt Presiune Umiditate
    00:00 +27°C° 0.2 mm 1 m/s 757 mmHg 90%
    01:00 +25°C° 0.2 mm 0 m/s 757 mmHg 91%
    02:00 +25°C° 0.1 mm 0 m/s 756 mmHg 91%
    03:00 +25°C° 0.1 mm 0 m/s 756 mmHg 91%
    04:00 +27°C° 0.1 mm 1 m/s 756 mmHg 91%
    05:00 +27°C° 0.1 mm 1 m/s 756 mmHg 89%
    06:00 +27°C° 0.1 mm 1 m/s 757 mmHg 88%
    07:00 +27°C° 0.1 mm 1 m/s 757 mmHg 87%
    08:00 +29°C° 0.1 mm 1 m/s 757 mmHg 78%
    09:00 +31°C° 0.1 mm 1 m/s 758 mmHg 70%
    10:00 +33°C° 0.1 mm 1 m/s 758 mmHg 62%
    11:00 +34°C° 0.3 mm 2 m/s 757 mmHg 61%
    12:00 +35°C° 0.3 mm 2 m/s 757 mmHg 59%
    13:00 +35°C° 0.3 mm 3 m/s 756 mmHg 58%
    14:00 +34°C° 1 mm 3 m/s 756 mmHg 65%
    15:00 +31°C° 1 mm 3 m/s 756 mmHg 72%
    16:00 +30°C° 1 mm 3 m/s 755 mmHg 78%
    17:00 +29°C° 1.7 mm 3 m/s 756 mmHg 82%
    18:00 +29°C° 1.7 mm 3 m/s 756 mmHg 85%
    19:00 +28°C° 1.7 mm 3 m/s 756 mmHg 88%
    20:00 +28°C° 0.9 mm 2 m/s 757 mmHg 88%
    21:00 +27°C° 0.9 mm 2 m/s 757 mmHg 89%
    22:00 +27°C° 0.9 mm 2 m/s 758 mmHg 89%
    23:00 +27°C° 1.1 mm 1 m/s 757 mmHg 90%
    Arată mai mult